[[{"header":{"parameterUnit":"m.s-1","parameterCategory":1,"la1":30.2991,"la2":30.254,"lo1":-89.0895,"lo2":-89.0444,"dy":0.0017,"dx":0.0017,"nx":28,"ny":28,"refTime":"2023-04-16T21:00:00:Z","depth":0,"parameterNumber":2,"parameterNumberName":"U-component_of_WINDS"},"data":[0,0,0,0,0,0,0,0,0,0,0,0,0,0,0,0,0,0,0,0,0,0,0,0,0,0,0,0,0,0,0,0,0,0,0,0,0,0,0,0,0,0,0,0,0,0,0,0,0,0,0,0,0,0,0,0,0,0,3.1611,3.1611,0,3.1659,3.166,3.166,3.161,3.1608,3.1606,3.1604,3.1653,3.1656,3.1659,0,0,0,0,0,0,0,0,0,0,0,0,0,3.1476,3.1479,3.1611,3.1611,3.1612,3.1659,3.166,3.166,3.161,3.1608,3.1606,3.1603,3.1652,3.1656,3.1659,0,0,0,0,0,0,0,0,0,0,0,0,0,3.1531,3.148,3.1611,3.1593,3.1592,3.1659,3.166,3.166,3.1611,3.1608,3.1605,3.1602,3.1651,3.1655,3.166,3.1747,0,0,3.1674,3.1676,0,0,0,0,0,0,0,0,3.1528,3.1536,3.1595,3.1594,3.1593,3.1626,3.163,3.169,3.1612,3.1604,3.1604,3.1601,3.1646,3.1651,3.1667,3.1749,3.1751,3.1675,3.1678,3.168,3.1681,0,0,0,0,0,0,0,3.1524,3.1533,3.163,3.1596,3.1595,3.1583,3.1587,3.1641,3.1641,3.1604,3.16,3.1607,3.1645,3.1662,3.1667,3.1752,3.1675,3.1679,3.1682,3.1683,3.1911,3.1914,0,0,0,0,0,0,3.1522,3.153,3.1628,3.1631,3.1552,3.1587,3.1592,3.1618,3.164,3.164,3.1609,3.1604,3.1656,3.1662,3.1669,3.1774,3.1679,3.1684,3.1687,3.1908,3.1912,3.1915,0,0,0,0,0,0,3.1519,3.1531,3.1626,3.158,3.1591,3.1593,3.1622,3.162,3.1637,3.1644,3.1644,3.1627,3.1654,3.1662,3.1729,3.1775,3.1686,3.169,3.1904,3.1909,3.1914,3.1983,0,0,0,0,0,0,3.1516,3.1531,3.1563,3.1581,3.1594,3.1685,3.1625,3.1624,3.1646,3.164,3.166,3.1661,3.1652,3.1722,3.1733,3.1779,3.1694,3.19,3.1906,3.1912,3.1977,3.199,3.2001,0,0,0,0,0,3.1511,3.1581,3.1565,3.1577,3.1635,3.1688,3.1695,3.1684,3.165,3.1683,3.1687,3.166,3.1768,3.1729,3.1741,3.179,3.1897,3.1904,3.1911,3.1971,3.1987,3.2001,0,0,0,0,0,0,3.1568,3.1582,3.1566,3.1643,3.1665,3.1679,3.1721,3.1701,3.1732,3.1725,3.171,3.1715,3.1786,3.1794,3.1751,3.1876,3.1827,3.1837,3.1868,3.1883,3.1895,3.1892,3.1698,0,0,0,0,0,3.1589,3.1631,3.1642,3.1709,3.1721,3.1719,3.1742,3.1731,3.1753,3.1762,3.1771,3.1793,3.1832,3.1858,3.1894,3.1978,3.1982,3.2017,3.2029,3.2039,3.2048,3.2095,3.2111,3.1939,3.1939,3.1939,0,0,3.1634,3.1647,3.1674,3.1721,3.1736,3.178,3.1727,3.1775,3.1808,3.1769,3.1833,3.1841,3.1864,3.194,3.1974,3.1949,3.2097,3.2049,3.2056,3.206,3.2104,3.212,3.2135,3.1944,3.1943,3.1943,0,0,3.1738,3.1752,3.181,3.1827,3.1852,3.1851,3.1865,3.1883,3.1887,3.1951,3.1923,3.1962,3.2029,3.2047,3.2066,3.2179,3.2156,3.2191,3.2255,3.23,3.2314,3.2326,3.2368,3.2383,3.22,3.2201,3.2201,0,3.1791,3.1856,3.1843,3.1894,3.1916,3.1883,3.1943,3.196,3.1995,3.2011,3.1983,3.2068,3.2081,3.2162,3.219,3.2205,3.2222,3.2189,3.2313,3.2325,3.2336,3.2376,3.2391,3.2205,3.2204,3.2204,3.2203,0,3.192,3.1966,3.201,3.2046,3.2072,3.2127,3.2123,3.2152,3.214,3.2142,3.2208,3.2223,3.2263,3.2281,3.2269,3.2361,3.2345,3.2315,3.2265,3.2357,3.2394,3.2409,3.2211,3.2209,3.2208,3.2207,0,0,3.206,3.2089,3.2106,3.2122,3.2148,3.2183,3.2238,3.2277,3.2302,3.2328,3.2374,3.2432,3.2406,3.2426,3.2416,3.2456,3.2547,3.2422,3.2422,3.2446,3.2651,3.2674,3.2691,3.2532,3.2535,3.2537,3.2649,0,3.2166,3.226,3.2251,3.2341,3.2384,3.2354,3.2402,3.2423,3.2427,3.2464,3.2468,3.251,3.2471,3.2484,3.2522,3.2528,3.2588,3.252,3.2575,3.2577,3.2571,3.271,3.2734,3.2839,3.2664,3.2666,3.2668,0,3.2302,3.2334,3.2428,3.2449,3.2466,3.2509,3.2545,3.2581,3.2605,3.2605,3.263,3.2613,3.2669,3.2618,3.2694,3.2648,3.267,3.2676,3.268,3.2685,3.2628,3.272,3.2872,3.2889,3.269,3.2689,3.2687,0,3.2396,3.2463,3.2528,3.2543,3.2568,3.26,3.2612,3.2633,3.2658,3.2689,3.2705,3.2743,3.2763,3.2793,3.2788,3.2751,3.2866,3.2814,3.2869,3.2869,3.2894,3.2893,3.3053,3.2908,3.2908,3.2907,3.2907,0,3.2516,3.2575,3.2571,3.2611,3.2677,3.2666,3.2732,3.274,3.276,3.2802,3.2778,3.2818,3.2808,3.2848,3.2844,3.2909,3.2918,3.292,3.2919,3.2923,3.2923,3.2937,3.293,3.2911,3.291,3.291,3.2909,0,3.2633,3.2632,3.2702,3.2721,3.2727,3.2775,3.2791,3.283,3.2832,3.2886,3.2898,3.2902,3.2948,3.2945,3.2996,3.2994,3.3074,3.3064,3.3067,3.3065,3.3119,3.3115,3.3295,3.3319,3.3157,3.3159,3.316,0,3.2709,3.2754,3.2779,3.2805,3.282,3.2863,3.2888,3.288,3.2907,3.2939,3.2974,3.3018,3.3053,3.3128,3.3135,3.3175,3.3166,3.3226,3.3171,3.3175,3.3168,3.3166,3.3171,3.3237,3.3239,3.324,3.3242,0,3.2846,3.2844,3.2881,3.292,3.2952,3.2981,3.3008,3.3032,3.3026,3.3059,3.3106,3.3133,3.3186,3.323,3.3269,3.3281,3.3262,3.3259,3.3274,3.3279,3.3279,3.3281,3.3097,3.3255,3.3253,3.3252,3.3252,3.3251,3.2945,3.2985,3.3009,3.3052,3.3072,3.3098,3.3136,3.3144,3.3183,3.3226,3.3219,3.3272,3.3296,3.3346,3.3362,3.3404,3.3382,3.3404,3.3409,3.3415,3.3422,3.3272,3.3411,3.3411,3.341,3.341,3.341,0,3.3082,3.3096,3.3136,3.3175,3.321,3.3189,3.3218,3.3249,3.3296,3.332,3.3355,3.341,3.3454,3.3465,3.3507,3.3538,3.353,3.355,3.3548,3.3551,3.3438,3.3421,3.3556,3.3556,3.3556,3.3556,3.3556,3.3556,3.3157,3.3223,3.3224,3.33,3.3314,3.3366,3.3385,3.341,3.3429,3.3492,3.3528,3.3536,3.3556,3.3599,3.3638,3.364,3.3657,3.3681,3.368,3.3574,3.3559,3.3545,3.3529,3.3684,3.3685,3.379,3.3791,3.3791]},{"header":{"parameterUnit":"m.s-1","parameterCategory":1,"la1":30.2991,"la2":30.254,"lo1":-89.0895,"lo2":-89.0444,"dy":0.0017,"dx":0.0017,"nx":28,"ny":28,"refTime":"2023-04-16T21:00:00:Z","depth":0,"parameterNumber":3,"parameterNumberName":"V-component_of_WINDS"},"data":[0,0,0,0,0,0,0,0,0,0,0,0,0,0,0,0,0,0,0,0,0,0,0,0,0,0,0,0,0,0,0,0,0,0,0,0,0,0,0,0,0,0,0,0,0,0,0,0,0,0,0,0,0,0,0,0,0,0,-5.7657,-5.7658,0,-5.7796,-5.7798,-5.7799,-5.7725,-5.7721,-5.7718,-5.7714,-5.7859,-5.7866,-5.7874,0,0,0,0,0,0,0,0,0,0,0,0,0,-5.7329,-5.7336,-5.7656,-5.7658,-5.766,-5.7796,-5.7798,-5.78,-5.7726,-5.7721,-5.7717,-5.7712,-5.7857,-5.7865,-5.7874,0,0,0,0,0,0,0,0,0,0,0,0,0,-5.7471,-5.7338,-5.7656,-5.7639,-5.7639,-5.7795,-5.7798,-5.78,-5.7727,-5.7721,-5.7715,-5.771,-5.7854,-5.7865,-5.7875,-5.8056,0,0,-5.7909,-5.7914,0,0,0,0,0,0,0,0,-5.7463,-5.7483,-5.764,-5.7641,-5.7641,-5.7737,-5.7735,-5.7886,-5.7728,-5.7694,-5.7714,-5.7707,-5.7823,-5.7836,-5.7875,-5.8063,-5.8069,-5.791,-5.7917,-5.7922,-5.7925,0,0,0,0,0,0,0,-5.7453,-5.7476,-5.7712,-5.7643,-5.7643,-5.7626,-5.764,-5.7764,-5.7789,-5.7696,-5.7691,-5.7709,-5.7822,-5.7865,-5.7878,-5.8072,-5.791,-5.792,-5.7926,-5.7931,-5.8418,-5.8424,0,0,0,0,0,0,-5.7444,-5.7469,-5.7707,-5.7716,-5.7536,-5.7636,-5.7652,-5.7712,-5.7787,-5.7793,-5.7713,-5.7705,-5.7849,-5.7865,-5.7883,-5.8102,-5.7921,-5.7932,-5.7938,-5.8411,-5.8419,-5.8426,0,0,0,0,0,0,-5.7437,-5.7466,-5.7702,-5.7591,-5.762,-5.7648,-5.7716,-5.7718,-5.776,-5.78,-5.7804,-5.7752,-5.7845,-5.7867,-5.8014,-5.8106,-5.7937,-5.7947,-5.8404,-5.8414,-5.8422,-5.854,0,0,0,0,0,0,-5.7428,-5.7464,-5.7532,-5.7593,-5.7626,-5.783,-5.7722,-5.7725,-5.7779,-5.7769,-5.7837,-5.7843,-5.7842,-5.7998,-5.8025,-5.8118,-5.7956,-5.8396,-5.8408,-5.8419,-5.8528,-5.8552,-5.8573,0,0,0,0,0,-5.7416,-5.756,-5.7536,-5.7565,-5.7712,-5.7836,-5.7855,-5.785,-5.7786,-5.7856,-5.7882,-5.7841,-5.8091,-5.8014,-5.8044,-5.8141,-5.839,-5.8405,-5.8418,-5.8518,-5.8547,-5.8572,0,0,0,0,0,0,-5.7509,-5.7567,-5.7542,-5.7708,-5.7768,-5.7823,-5.7911,-5.7881,-5.796,-5.7948,-5.7939,-5.7955,-5.8109,-5.8139,-5.8052,-5.8321,-5.8231,-5.8252,-5.8296,-5.8324,-5.8346,-5.8337,-5.7965,0,0,0,0,0,-5.7549,-5.7644,-5.769,-5.7833,-5.7863,-5.7882,-5.7936,-5.7927,-5.7989,-5.8014,-5.805,-5.8112,-5.8204,-5.8265,-5.8353,-5.8531,-5.8546,-5.8613,-5.8635,-5.8653,-5.8672,-5.8771,-5.8802,-5.8472,-5.8472,-5.8472,0,0,-5.7633,-5.7676,-5.7736,-5.7852,-5.7897,-5.7997,-5.7904,-5.8013,-5.8087,-5.803,-5.8172,-5.8201,-5.8269,-5.8433,-5.8507,-5.8463,-5.8766,-5.8671,-5.8686,-5.8695,-5.8789,-5.882,-5.8848,-5.8482,-5.848,-5.8479,0,0,-5.7836,-5.7878,-5.8002,-5.8049,-5.8118,-5.813,-5.816,-5.822,-5.8237,-5.8378,-5.8338,-5.8427,-5.8586,-5.8637,-5.8684,-5.8908,-5.8874,-5.8936,-5.9054,-5.9151,-5.9177,-5.92,-5.9282,-5.9311,-5.8954,-5.8955,-5.8955,0,-5.7932,-5.808,-5.807,-5.8183,-5.8236,-5.8188,-5.8316,-5.8362,-5.8456,-5.8494,-5.8443,-5.8643,-5.8685,-5.8862,-5.8917,-5.8955,-5.8991,-5.8929,-5.9173,-5.9196,-5.9218,-5.9296,-5.9327,-5.8962,-5.8961,-5.896,-5.896,0,-5.8195,-5.8298,-5.839,-5.8483,-5.8546,-5.8665,-5.8675,-5.8741,-5.8727,-5.8744,-5.889,-5.8939,-5.9037,-5.9077,-5.9065,-5.9253,-5.9224,-5.9173,-5.9083,-5.9257,-5.9331,-5.936,-5.8972,-5.897,-5.8968,-5.8966,0,0,-5.8462,-5.8547,-5.8582,-5.8624,-5.8697,-5.8777,-5.8895,-5.8989,-5.9047,-5.9113,-5.9213,-5.9349,-5.9304,-5.9357,-5.9349,-5.9434,-5.9611,-5.9373,-5.9375,-5.9418,-5.9824,-5.9864,-5.9899,-5.9588,-5.9593,-5.9598,-5.982,0,-5.8672,-5.8878,-5.8873,-5.9065,-5.9162,-5.9118,-5.9221,-5.9277,-5.9297,-5.9382,-5.9403,-5.9501,-5.9432,-5.9464,-5.9545,-5.9572,-5.9693,-5.9556,-5.9683,-5.9688,-5.967,-5.9937,-5.9978,-6.0185,-5.9848,-5.9853,-5.9856,0,-5.8945,-5.9021,-5.9223,-5.9283,-5.9323,-5.9415,-5.9503,-5.9584,-5.9648,-5.9656,-5.9717,-5.9696,-5.9817,-5.9722,-5.989,-5.9797,-5.9848,-5.9869,-5.9877,-5.9891,-5.9784,-5.996,-6.0251,-6.0283,-5.9901,-5.9898,-5.9894,0,-5.9123,-5.9275,-5.9416,-5.9453,-5.9526,-5.9592,-5.9626,-5.9684,-5.9742,-5.9818,-5.9856,-5.9945,-5.9995,-6.0066,-6.0071,-6.0,-6.0241,-6.0145,-6.0253,-6.0254,-6.0308,-6.0305,-6.0614,-6.0337,-6.0337,-6.0336,-6.0335,0,-5.936,-5.9486,-5.9497,-5.9584,-5.9724,-5.9718,-5.9857,-5.9884,-5.9936,-6.0029,-5.9996,-6.0083,-6.0083,-6.0173,-6.0178,-6.0318,-6.034,-6.0351,-6.0351,-6.0356,-6.0355,-6.0391,-6.0378,-6.0344,-6.0343,-6.0341,-6.034,0,-5.9583,-5.9596,-5.9747,-5.9803,-5.982,-5.9921,-5.997,-6.0054,-6.007,-6.0187,-6.0215,-6.0241,-6.0345,-6.0356,-6.0477,-6.048,-6.065,-6.0633,-6.0629,-6.0627,-6.0735,-6.0726,-6.108,-6.1128,-6.0818,-6.0821,-6.0823,0,-5.9735,-5.983,-5.9897,-5.9957,-5.9994,-6.009,-6.0149,-6.0146,-6.0209,-6.029,-6.0364,-6.0465,-6.0545,-6.0714,-6.0745,-6.0837,-6.0825,-6.0942,-6.0838,-6.0841,-6.083,-6.0825,-6.0836,-6.0963,-6.0967,-6.0969,-6.0972,0,-6.0003,-6.0005,-6.009,-6.018,-6.0251,-6.032,-6.0386,-6.0437,-6.0442,-6.0515,-6.0621,-6.0684,-6.0807,-6.0909,-6.1001,-6.1036,-6.1007,-6.1004,-6.1034,-6.1041,-6.1035,-6.1043,-6.0687,-6.0996,-6.0994,-6.0992,-6.0991,-6.099,-6.0197,-6.0281,-6.0342,-6.0439,-6.0488,-6.055,-6.0632,-6.0658,-6.0746,-6.0847,-6.084,-6.0958,-6.102,-6.114,-6.1182,-6.1275,-6.1236,-6.128,-6.1291,-6.1303,-6.1315,-6.1019,-6.1292,-6.1291,-6.129,-6.129,-6.1289,0,-6.0466,-6.0503,-6.0592,-6.0685,-6.0762,-6.0725,-6.0796,-6.0864,-6.0968,-6.1028,-6.1108,-6.1231,-6.1329,-6.1367,-6.1464,-6.1531,-6.152,-6.1557,-6.1553,-6.1563,-6.1343,-6.1308,-6.1564,-6.1564,-6.1564,-6.1564,-6.1564,-6.1564,-6.0615,-6.0756,-6.0765,-6.093,-6.0966,-6.1081,-6.1125,-6.1183,-6.1231,-6.137,-6.1451,-6.1475,-6.1527,-6.1627,-6.1717,-6.1725,-6.1764,-6.1807,-6.181,-6.1605,-6.1578,-6.1551,-6.1519,-6.1815,-6.1815,-6.2022,-6.2024,-6.2026]}]]